Regional Weather Roundup
Issued by NWS

Home | Current Version | Previous Version | Graphics & Text | Print | Product List | Glossary On
Versions: 1 2 3 4 5 6 7 8 9 10 11 12 13 14 15 16 17 18 19 20 21 22 23 24 25 26 27 28 29 30 31 32 33 34 35 36 37 38 39 40 41 42 43 44 45 46 47 48 49 50
884
ASUS43 KDMX 180606
RWRIA

WEATHER ROUNDUP FOR IOWA
NATIONAL WEATHER SERVICE DES MOINES IA
1200 AM CST MON DEC 18 2017

NOTE: "FAIR" INDICATES FEW OR NO CLOUDS BELOW 12,000 FEET WITH NO
SIGNIFICANT WEATHER AND/OR OBSTRUCTIONS TO VISIBILITY.

* - THESE STATIONS ARE NOT NWS STATIONS...THUS NOT UNDER NWS
QUALITY CONTROL.  THEY ALSO DO NOT REPORT WEATHER SUCH
AS PRECIPITATION OR FOG.

IAZ001>003-012>014-020>022-031>034-043>046-180700-
   NORTHWEST IOWA

CITY           SKY/WX    TMP DP  RH WIND       PRES   REMARKS
CARROLL *      CLOUDY    25  23  93 W5        29.96S FOG     WCI  19
CHEROKEE *     CLEAR     23  23 100 CALM      29.96R FOG
DENISON *      CLOUDY    23  23 100 CALM      29.97F FOG
LE MARS *      PTCLDY    23  21  93 S5        29.96S FOG     WCI  17
ORANGE CITY *  CLOUDY    27  27 100 SW3       29.94S
SHELDON *      CLOUDY    27  27 100 SW5       29.92S WCI  21
SIOUX CITY     CLEAR     21  20  96 E3        29.96F
6HR MIN TEMP:  20; 6HR MAX TEMP:  32;

SPENCER        CLOUDY    20  17  88 W6        29.94S FOG     WCI  12
6HR MIN TEMP:  18; 6HR MAX TEMP:  31;

STORM LAKE *   CLEAR     23  23 100 SW8       29.93F FOG     WCI  14
$$

IAZ055>058-069>071-079>083-090>094-180700-
   SOUTHWEST IOWA

CITY           SKY/WX    TMP DP  RH WIND       PRES   REMARKS
ATLANTIC *     CLOUDY    23  23 100 SW3       29.98F FOG
AUDUBON *      PTCLDY    25  21  86 CALM      29.96F FOG
CLARINDA *     CLOUDY    34  34 100 NW3       30.02  FOG
COUNCIL BLFS * CLEAR     28  28 100 CALM      29.98F
CRESTON *      FOG       32  30  93 W9        29.99F VSB 3/4 WCI  24
HARLAN  *      PTCLDY    23  23 100 SW3       30.01F
LAMONI         FOG       35  35 100 W5        29.98F VSB 1   WCI  31
6HR MIN TEMP:  35; 6HR MAX TEMP:  41;

RED OAK *      FOG       30  30 100 S3        30.00F VSB<1/4
SHENANDOAH *   CLOUDY    32  32 100 CALM      30.01F FOG
$$

IAZ047>049-059>061-072>074-084-180700-
   CENTRAL IOWA

CITY           SKY/WX    TMP DP  RH WIND       PRES   REMARKS
AMES           CLOUDY    27  26  96 SW6       29.97F FOG     WCI  20
6HR MIN TEMP:  24; 6HR MAX TEMP:  31;

ANKENY *       PTCLDY    28  27  93 SW5       29.99F FOG     WCI  23
BOONE *        CLOUDY    28  27  93 W3        29.95S FOG
CHARITON *     CLOUDY    36  34  93 W9        29.98S WCI  29
DES MOINES     MOCLDY    29  25  85 W5        29.98F WCI  24
6HR MIN TEMP:  29; 6HR MAX TEMP:  36;

GRINNELL*      CLOUDY    33  32  94 SW6       29.98F WCI  28
KNOXVILLE *    CLOUDY    36  34  93 W6        29.97F FOG     WCI  31
MARSHALLTOWN   CLOUDY    28  26  92 S3        29.95F FOG
6HR MIN TEMP:  27; 6HR MAX TEMP:  35;

NEWTON *       CLOUDY    32  28  86 W7        29.98S WCI  26
PELLA *        CLOUDY    35  32  90 W5        29.99F WCI  31
PERRY *          N/A     25  22  90 S6        29.97S FOG     WCI  18
$$

IAZ004>006-015-016-023>025-035-036-180700-
   NORTH CENTRAL IOWA

CITY           SKY/WX    TMP DP  RH WIND       PRES   REMARKS
ALGONA *       MOCLDY    25  25 100 CALM      29.93F FOG
CLARION *      CLOUDY    28  28 100 W7        29.95F FOG     WCI  21
ESTHERVILLE    CLOUDY    24  24 100 SW5       29.92F WCI  18
6HR MIN TEMP:  18; 6HR MAX TEMP:  28;

FORT DODGE *   PTCLDY    24  22  91 SW3       29.95F FOG
MASON CITY     CLOUDY    28  26  92 SW7       29.95F FOG     WCI  21
6HR MIN TEMP:  28; 6HR MAX TEMP:  29;

FOREST CITY *  CLOUDY    30  28  93 SW6       29.93F FOG     WCI  24
WEBSTER CITY * CLOUDY    28  27  93 W7        29.94F FOG     WCI  21
IOWA FALLS *     N/A     29  27  90 W3        29.96S FOG
$$

IAZ007>011-017>019-026>030-037>042-050>054-066-180700-
   NORTHEAST IOWA

CITY           SKY/WX    TMP DP  RH WIND       PRES   REMARKS
CEDAR RAPIDS   CLOUDY    36  36 100 W6        29.96R FOG     WCI  31
6HR MIN TEMP:  35; 6HR MAX TEMP:  36; 6HR PCP: TRACE;

CLINTON *      FOG       36  36 100 SW3       29.96F VSB 1/4
DECORAH *      CLOUDY    32  30  93 CALM      29.92F FOG
DUBUQUE        CLOUDY    33  33 100 SW5       29.93F FOG     WCI  29
6HR MIN TEMP:  33; 6HR MAX TEMP:  34; 6HR PCP:  0.01;

MONTICELLO *   FOG       34  34 100 S5        29.95S VSB 1/2 WCI  30
OELWEIN *      MOCLDY    28  28 100 SE3       29.93F FOG
WATERLOO       CLOUDY    28  26  92 W3        29.95F FOG
6HR MIN TEMP:  25; 6HR MAX TEMP:  34;

$$

IAZ064-065-067-068-078-180700-
   EAST CENTRAL IOWA

CITY           SKY/WX    TMP DP  RH WIND       PRES   REMARKS
DAVENPORT      FOG       38  37  97 SW5       29.99S VSB 1/4 WCI  34
6HR MIN TEMP:  37; 6HR MAX TEMP:  39; 6HR PCP:  0.02;

IOWA CITY      CLOUDY    38  37  97 W6        29.99F FOG     WCI  33
6HR MIN TEMP:  37; 6HR MAX TEMP:  38; 6HR PCP: TRACE;

MT. PLEASANT * CLOUDY    43  43 100 SW9       29.99S
MUSCATINE *    FOG       39  39 100 S5        29.98F VSB 1/4
QUAD CITIES    CLOUDY    41  41 100 SW7       29.97S FOG
$$

IAZ062-063-075>077-085>089-095>099-180700-
   SOUTHEAST IOWA

CITY           SKY/WX    TMP DP  RH WIND       PRES   REMARKS
BURLINGTON     CLOUDY    44  44 100 SW8       29.99S
6HR MIN TEMP:  41; 6HR MAX TEMP:  44;

FAIRFIELD *    FOG       39  39 100 W6        29.98F VSB 1/4 WCI  35
FORT MADISON * CLOUDY    45  45 100 SW7       30.00F
KEOKUK *       CLOUDY    45  43  93 W8        30.00S
OSKALOOSA *    CLOUDY    36  35  98 W7        29.99S FOG     WCI  30
OTTUMWA        FOG       39  39 100 W6        29.98S VSB 1/2 WCI  35
6HR MIN TEMP:  39; 6HR MAX TEMP:  40;

WASHINGTON *   FOG       39  39 100 W7        29.99F VSB 1/4 WCI  34
$$

ABBREVIATIONS USED IN REMARKS
   TC - TEMPERATURES IN CELSIUS
  WCI - WIND CHILL INDEX
   HX - HEAT INDEX
  VSB - VISIBILITY
$$





USA.gov is the U.S. government's official web portal to all federal, state and local government web resources and services.